Showing default

OPS 9334 (DATS), 2865

Orbit data source: Space-Track

OPS 9334 (DATS), 2865 is a payload satellite owned by SAMSO (US) in GEO that was launched on Sat, 01 Jul 1967 UTC via a TITAN IIIC launch vehicle from the Air Force Eastern Test Range (AFETR). Payload-class satellites include a variety of spacecraft equipped with specific instruments for various scientific and technological missions. These include communications satellites like Starlink; space stations such as the ISS; scientific satellites like the Hubble; Earth observation satellites from companies like Planet Labs, Umbra, and HawkEye 360; GPS; miniature CubeSats for education and research; and military/defense satellites.

Loading next visibility...
Identifier
2865, 1967-066D
Orbit
GEO
Country
Flag of USUS
Related business
Manufacturer
Philco-Ford WDL
Mission
Non-operational Defense Communications
Bus & Motor
IDCSP, Unknown motor
Mass
68 kg wet, 68 kg dry
Launch date (UTC)
1967-07-01 (58 years ago)
Launch vehicle
TITAN IIIC
Launch site
Air Force Eastern Test Range (AFETR)
Object type
Payload
Rocket body
Debris
Shape & HBR
Poly, Unknown HBR
Radar Cross Section
0.926 m², Medium (>0.1 m² and < 1m²)

Expand to show TLE details & history
Last TLE update: 15 hours ago

TLE from 15 hours ago
0 OPS 9334 (DATS)
1 02865U 67066D   25261.11825372 -.00000071  00000-0  00000-0 0  9990
2 02865   2.0928 104.7200 0054448 210.4328 265.5449  1.09623849127189
Epoch: 2025-09-18T02:50Z
TLE epoch observation values (Epoch: 2025-09-18T02:50:17.121Z)
Latitude
1.91211°
Longitude
-179.76698°
Altitude
33,371.205 km
Speed
3.166 km/s
True Right ascension
14h 40m 21s
True Declination
1° 54' 36"
Sunlit
Object was in daylight at epoch
Visualization orbit readout
Latitude
Unknown
Longitude
Unknown
Altitude
Unknown
Speed
Unknown
Apparent Right ascension
Unknown
Apparent Declination
Unknown
Sunlit
N/A
Visualization observer readout
Local Sidereal Time
10:26:21
Azimuth
Unknown
Elevation
Unknown
Doppler factor
Unknown
Orbital elements
Apogee altitude
33,570.54 km
Perigee altitude
33,137.871 km
Semi-major axis
39,732.342 km
Eccentricity
0.00544
Inclination
2.0928°
RAAN
104.72°
Arg. of periapsis
210.4328°
True anomaly
264.9232°
Mean anomaly
265.5449°
Eccentric anomaly
265.23401°
Mean motion
0.27405 °/min
Orbital period
1,313.64 mins
BSTAR
0
Loading maneuver chart data...
Computing Atmospheric mass density...
Loading historical data...
Loading historical data...
Loading historical data...
Loading historical data...
Loading historical data...
Loading historical data...
Loading historical data...

Documentation

Showing up to 5 results
|